Station: Macquarie Island  

  Atmospheric Gas Attenuation - ITU Rec 676-11   ----------------- dB/100km -----------------
Date Time Temp RH % AH g/m3 Dew Point Wind Direction Speed kph Gust kph Barometer mB Rainfall Since 9am 24GHz 47GHz 76GHz 122GHz 134GHz 241GHz
02/09 08:00 4.6 89 5.89 2.9 28 33 982.1 10 14.1 22.9 31.8 83.4 70.4 239.5
02/09 07:50 4.6 90 5.96 3.1 28 32 982 10 14.3 23.0 32.0 84.1 71.3 242.7
02/09 07:40 4.4 91 5.95 3.1 28 32 982 10 14.3 23.0 32.1 84.2 71.3 242.9
02/09 07:30 4.3 91 5.91 3 26 30 982 10 14.2 23.0 31.9 83.9 70.9 241.3
02/09 07:20 4.2 91 5.87 2.9 26 32 982 10 14.1 22.9 31.8 83.6 70.5 239.8
02/09 07:10 4.1 91 5.83 2.8 26 32 982 10 14.0 22.9 31.7 83.2 70.0 238.3
02/09 07:00 4 91 5.79 2.7 24 28 981.9 10 14.0 22.9 31.6 82.9 69.6 236.7
02/09 06:50 3.9 91 5.75 2.6 26 30 981.8 10 13.9 22.8 31.5 82.6 69.1 235.1
02/09 06:40 3.9 91 5.75 2.6 24 30 981.8 10 13.9 22.8 31.5 82.6 69.1 235.1
02/09 06:30 3.8 91 5.71 2.5 26 30 981.8 10 13.8 22.8 31.3 82.3 68.7 233.6
02/09 06:20 3.8 91 5.71 2.5 26 30 981.9 10 13.8 22.8 31.3 82.3 68.7 233.6
02/09 06:10 3.8 91 5.71 2.5 26 30 981.8 10 13.8 22.8 31.3 82.3 68.7 233.6
02/09 06:00 3.8 90 5.65 2.3 26 30 981.6 10 13.7 22.7 31.1 81.6 67.9 230.7
02/09 05:50 3.8 90 5.65 2.3 30 37 981.6 10 13.7 22.7 31.1 81.6 67.9 230.7
02/09 05:40 3.8 90 5.65 2.3 32 37 981.6 10 13.7 22.7 31.1 81.6 67.9 230.7
02/09 05:30 3.9 89 5.63 2.3 32 39 981.5 10 13.6 22.6 31.0 81.3 67.6 229.5
02/09 05:20 3.9 88 5.56 2.1 32 37 981.3 10 13.5 22.5 30.7 80.5 66.6 226.3
02/09 05:10 4 86 5.47 1.9 32 39 981.2 10 13.3 22.3 30.3 79.5 65.4 221.8
02/09 05:00 4.2 83 5.35 1.6 41 46 981.1 10 13.0 22.1 29.7 78.0 63.6 215.8
02/09 04:50 4.2 80 5.16 1.1 43 48 981 10 12.6 21.8 29.0 76.0 61.2 207.2
02/09 04:40 4 78 4.96 0.5 43 50 980.7 10 12.1 21.5 28.3 74.1 58.8 198.7
02/09 04:30 3.8 79 4.96 0.5 41 52 980.6 10 12.2 21.6 28.3 74.3 58.9 199.2
02/09 04:20 3.9 83 5.25 1.3 39 46 980.4 10 12.8 22.0 29.4 77.2 62.5 212.0
02/09 04:10 3.9 83 5.25 1.3 41 48 980.4 10 12.8 22.0 29.4 77.2 62.5 212.0
02/09 04:00 4 84 5.35 1.5 44 50 980.4 10 13.0 22.1 29.8 78.1 63.8 216.2
02/09 03:50 4 84 5.35 1.5 44 50 980.5 10 13.0 22.1 29.8 78.1 63.8 216.2
02/09 03:40 3.7 84 5.24 1.3 39 48 980.3 10 12.8 22.0 29.5 77.3 62.6 212.0
02/09 03:30 3.8 88 5.53 2 33 41 980.2 10 13.4 22.4 30.6 80.2 66.2 224.9
02/09 03:20 3.9 90 5.69 2.4 32 37 980.3 10 13.7 22.7 31.2 81.8 68.3 232.0
02/09 03:10 4 90 5.73 2.5 32 39 980.3 10 13.8 22.7 31.3 82.1 68.7 233.6
02/09 03:00 4 91 5.79 2.7 32 41 980.2 10 14.0 22.8 31.5 82.8 69.5 236.3
02/09 02:50 4.1 92 5.89 2.9 33 39 980.2 10 14.2 22.9 31.9 83.7 70.7 240.7
02/09 02:40 4.1 92 5.89 2.9 35 41 980.2 10 14.2 22.9 31.9 83.7 70.7 240.7
02/09 02:30 4.2 92 5.93 3 33 39 980.2 10 14.2 23.0 32.0 84.0 71.2 242.2
02/09 02:20 4.3 93 6.04 3.3 30 37 980.2 10 14.5 23.1 32.4 85.1 72.5 247.0
02/09 02:10 4.4 94 6.14 3.5 28 37 980.2 10 14.7 23.3 32.8 86.1 73.8 251.3
02/09 02:00 4.4 94 6.14 3.5 22 28 980.2 10 14.7 23.3 32.8 86.1 73.8 251.3
02/09 01:50 4.4 93 6.08 3.4 22 24 980.2 10 14.6 23.2 32.5 85.4 73.0 248.5
02/09 01:40 4.5 92 6.05 3.3 26 33 980.1 10 14.5 23.1 32.3 85.0 72.5 246.8
02/09 01:30 4.6 92 6.09 3.4 33 41 980.2 10 14.6 23.1 32.5 85.3 72.9 248.4
02/09 01:20 4.5 92 6.05 3.3 32 39 980.1 10 14.5 23.1 32.3 85.0 72.5 246.8
02/09 01:10 4.5 92 6.05 3.3 32 39 980.1 10 14.5 23.1 32.3 85.0 72.5 246.8
02/09 01:00 4.5 92 6.05 3.3 33 39 980 10 14.5 23.1 32.3 85.0 72.4 246.8
02/09 00:50 4.5 93 6.12 3.5 35 41 980.1 10 14.7 23.2 32.6 85.7 73.4 250.1
02/09 00:40 4.6 93 6.16 3.6 37 41 980 10 14.7 23.2 32.7 86.1 73.8 251.6
02/09 00:30 4.6 94 6.22 3.7 37 43 979.9 10 14.9 23.3 33.0 86.7 74.6 254.4
02/09 00:20 4.6 95 6.29 3.9 37 43 979.8 10 15.0 23.4 33.3 87.4 75.5 257.6
02/09 00:10 4.6 96 6.36 4 33 41 979.7 10 15.2 23.5 33.5 88.2 76.5 260.9
02/09 00:00 4.7 96 6.4 4.1 30 39 979.7 10 15.3 23.6 33.7 88.5 76.9 262.4
01/09 23:50 4.8 97 6.51 4.4 30 35 979.6 10 15.5 23.7 34.1 89.6 78.3 267.2
01/09 23:40 4.9 97 6.55 4.5 32 41 979.5 10 15.6 23.8 34.2 89.9 78.7 268.7
01/09 23:30 5 97 6.6 4.6 33 41 979.5 10 15.7 23.8 34.3 90.3 79.3 270.8
01/09 23:20 5.1 97 6.64 4.7 35 43 979.5 10 15.8 23.9 34.5 90.6 79.7 272.3
01/09 23:10 5.2 97 6.68 4.8 35 41 979.4 10 15.8 23.9 34.6 90.9 80.1 273.8
01/09 23:00 5.4 97 6.77 5 37 43 979.2 10 16.0 24.0 34.8 91.7 81.1 277.3
01/09 22:50 5.5 97 6.82 5.1 33 41 979.2 10 16.1 24.0 35.0 92.1 81.7 279.3
01/09 22:40 5.5 97 6.82 5.1 33 43 979.2 9.8 16.1 24.0 35.0 92.1 81.7 279.3
01/09 22:30 5.5 97 6.82 5.1 39 44 979.2 9.8 16.1 24.0 35.0 92.1 81.7 279.3
01/09 22:20 5.4 97 6.77 5 39 44 979.3 9.6 16.0 24.0 34.9 91.7 81.1 277.3
01/09 22:10 5.4 97 6.77 5 41 46 979.4 9.6 16.0 24.0 34.9 91.7 81.1 277.3
01/09 22:00 5.5 97 6.82 5.1 43 46 979.5 9.4 16.1 24.1 35.0 92.1 81.7 279.4
01/09 21:50 5.5 97 6.82 5.1 41 48 979.5 9.4 16.1 24.1 35.0 92.1 81.7 279.4
01/09 21:40 5.5 97 6.82 5.1 43 48 979.6 9.2 16.1 24.1 35.0 92.1 81.7 279.4
01/09 21:30 5.5 97 6.82 5.1 43 50 979.7 9 16.1 24.1 35.0 92.2 81.7 279.4
01/09 21:20 5.6 98 6.93 5.3 43 52 979.8 9 16.4 24.2 35.4 93.3 83.1 284.3
01/09 21:10 5.5 98 6.89 5.2 43 46 979.9 8.8 16.3 24.2 35.3 92.9 82.7 282.8
01/09 21:00 5.5 97 6.82 5.1 44 48 980 8.6 16.1 24.1 35.0 92.2 81.7 279.5
01/09 20:50 5.4 97 6.77 5 44 50 980.1 8.6 16.0 24.0 34.9 91.8 81.2 277.5
01/09 20:40 5.4 97 6.77 5 44 48 980.3 8.4 16.0 24.0 34.9 91.8 81.2 277.6
01/09 20:30 5.4 97 6.77 5 46 52 980.4 8.4 16.0 24.0 34.9 91.8 81.2 277.6
01/09 20:20 5.5 98 6.89 5.2 46 54 980.5 8.4 16.3 24.2 35.4 93.0 82.7 282.9
01/09 20:10 5.4 97 6.77 5 44 52 980.6 8.2 16.0 24.0 34.9 91.8 81.2 277.6
01/09 20:00 5.4 97 6.77 5 44 52 980.8 8 16.0 24.0 34.9 91.8 81.2 277.7
01/09 19:50 5.4 97 6.77 5 46 54 981 7.8 16.0 24.1 34.9 91.9 81.2 277.7
01/09 19:40 5.4 97 6.77 5 46 54 981 7.8 16.0 24.1 34.9 91.9 81.2 277.7
01/09 19:30 5.5 97 6.82 5.1 46 54 981.3 7.6 16.1 24.1 35.1 92.3 81.8 279.8
01/09 19:20 5.6 98 6.93 5.3 46 52 981.5 7.2 16.4 24.3 35.5 93.4 83.2 284.7
01/09 19:10 5.5 97 6.82 5.1 46 50 981.7 7.2 16.1 24.1 35.1 92.4 81.9 279.9
01/09 19:00 5.6 97 6.86 5.2 46 52 981.9 6.8 16.2 24.2 35.2 92.7 82.3 281.5
01/09 18:50 5.6 98 6.93 5.3 44 52 982.2 6.6 16.4 24.3 35.5 93.5 83.3 284.9
01/09 18:40 5.5 98 6.89 5.2 43 48 982.5 6.4 16.3 24.3 35.4 93.2 82.9 283.4
01/09 18:30 5.4 98 6.84 5.1 41 46 982.8 6.2 16.2 24.2 35.3 92.8 82.3 281.5
01/09 18:20 5.4 98 6.84 5.1 41 46 983 6.2 16.2 24.2 35.3 92.8 82.3 281.5
01/09 18:10 5.4 98 6.84 5.1 41 46 983.3 6.2 16.2 24.3 35.3 92.9 82.4 281.6
01/09 18:00 5.4 98 6.84 5.1 41 46 983.6 6 16.2 24.3 35.3 92.9 82.4 281.7
01/09 17:50 5.3 98 6.8 5 41 46 983.8 6 16.1 24.2 35.2 92.6 82.0 280.2
01/09 17:40 5.3 98 6.8 5 41 46 984 6 16.1 24.2 35.2 92.6 82.0 280.2
01/09 17:30 5.2 98 6.75 4.9 39 44 984.2 6 16.0 24.2 35.1 92.2 81.4 278.3
01/09 17:20 5.2 98 6.75 4.9 39 44 984.4 6 16.0 24.2 35.1 92.2 81.4 278.3
01/09 17:10 5.1 97 6.64 4.7 39 44 984.6 6 15.8 24.1 34.7 91.1 80.1 273.5
01/09 17:00 5.1 98 6.71 4.8 39 44 984.9 6 15.9 24.2 35.0 91.9 81.0 276.9
01/09 16:50 5 97 6.6 4.6 37 41 985.2 6 15.7 24.0 34.6 90.9 79.7 272.1
01/09 16:40 5 97 6.6 4.6 37 41 985.4 6 15.7 24.1 34.6 90.9 79.7 272.1
01/09 16:30 5.1 97 6.64 4.7 37 43 985.7 6 15.8 24.1 34.7 91.3 80.1 273.8
01/09 16:20 5 97 6.6 4.6 39 43 985.9 6 15.7 24.1 34.6 91.0 79.7 272.3
01/09 16:10 5 97 6.6 4.6 39 44 986.1 6 15.7 24.1 34.6 91.0 79.7 272.3
01/09 16:00 5.1 97 6.64 4.7 41 46 986.3 6 15.8 24.1 34.8 91.3 80.2 273.9
01/09 15:50 4.8 97 6.51 4.4 35 39 986.6 6 15.5 24.0 34.4 90.3 78.8 268.8
01/09 15:40 4.7 96 6.4 4.1 35 43 986.9 5.8 15.3 23.9 34.0 89.2 77.4 264.1
01/09 15:30 4.7 96 6.4 4.1 33 41 987.1 5.8 15.3 23.9 34.0 89.2 77.4 264.1

Last Refresh: 02-Sep-2026 07:40:45

Bureau of Meteorology